www.pogodaiklimat.ru

Погода и климат >> Архив погоды >> Беларусь >> Василевичи


АРХИВ ПОГОДЫ в Василевичах

Время (UTC), дата Ветер
(напр.,м/с)
 
Видим.   Явления Облачность Т
(С)
Тd
(С)
f
(%)
Тe
(С)
Тes
(С)
Комфортность P
(гПа)
Po
(гПа)
Тmin
(С)
Tmax
(С)
R
(мм)
R24
(мм)
S
(см)
18 9.06 штиль 0 10 км в посл. час гроза 9/4 600 м
[Cb calv Ac trans Ci fib]
+22.5 +17.4 73 +27 +27 душно 1022.2 1005.7 +30.4
21 9.06 С 1 4000 м дымка 8/0
[Ci fib]
+17.1 +16.5 96 +18 +18 1023.1 1006.2
00 10.06 штиль 0 4000 м дымка 6/0
[Ci fib]
+15.2 +14.5 96 +15 +15 1023.4 1006.4
03 10.06 штиль 0 4000 м дымка 4/0
[Ci fib]
+15.0 +14.3 96 +15 +15 1023.6 1006.6
06 10.06 СВ 1 10 км ясно +23.0 +16.9 69 +28 +37 душно 1023.1 1006.6 +14.0
09 10.06 СВ 2 20 км 3/3 600 м
[Cu hum]
+27.8 +16.2 49 +31 +42 душно 1022.4 1006.2
12 10.06 В 2 20 км 8/8 600 м
[Cu med, cong]
+29.8 +16.0 43 +33 +36 душно 1020.9 1004.9
15 10.06 В 3 20 км 6/5 600 м
[Cu med, cong Ci fib]
+29.4 +16.3 45 +33 +35 душно 1019.4 1003.4
18 10.06 СВ 1 10 км 8/4 600 м
[Sc diur, vesp Ci fib]
+25.5 +17.3 60 +29 +29 душно 1019.8 1003.5 +31.2
21 10.06 ЮВ 1 10 км 3/0
[Ci fib]
+19.9 +16.4 80 +23 +23 комфорт 1020.5 1003.9
00 11.06 штиль 0 4000 м дымка ясно +15.9 +15.1 95 +16 +16 1020.9 1004.0
03 11.06 штиль 0 4000 м дымка ясно +16.7 +15.3 91 +17 +17 1021.4 1004.5
06 11.06 ЮВ 1 10 км ясно +25.9 +17.5 60 +30 +39 душно 1021.0 1004.7 +14.1
09 11.06 ЮВ 2 20 км 3/3 600 м
[Cu med, cong]
+30.2 +15.9 42 +33 +44 душно 1020.1 1004.1
12 11.06 В 2 20 км 6/6 600 м
[Cu med, cong]
+31.3 +14.3 36 +33 +39 жарко 1018.7 1002.8
15 11.06 В 3 20 км 4/4 600 м
[Cu med, cong]
+31.0 +16.1 41 +34 +36 душно 1017.9 1002.0
18 11.06 штиль 0 10 км 4/3 600 м
[Cu med, cong Ci fib]
+26.0 +17.6 60 +30 +30 душно 1018.5 1002.3 +32.6
21 11.06 В 2 10 км ясно +21.3 +16.6 75 +25 +25 комфорт 1018.8 1002.3
00 12.06 ЮВ 1 10 км ясно +18.1 +15.9 87 +19 +19 1019.0 1002.3
03 12.06 штиль 0 10 км ясно +17.5 +15.5 88 +17 +18 1019.0 1002.2
06 12.06 ЮВ 1 10 км ясно +26.6 +17.9 59 +31 +40 душно 1018.2 1002.0 +15.3
09 12.06 ЮВ 1 10 км 6/6 1000 м
[Cu med, cong]
+31.1 +16.3 41 +34 +42 душно 1017.3 1001.4
12 12.06 ЮВ 1 20 км 4/3 1000 м
[Cu med, cong Ci fib]
+31.6 +13.2 33 +33 +44 жарко 1016.0 1000.2
15 12.06 В 1 20 км 4/3 1000 м
[Cu med, cong Ci fib]
+32.0 +13.1 32 +33 +37 жарко 1014.9 999.1
18 12.06 В 1 10 км 6/0
[Ac trans Ci fib]
+26.7 +16.7 54 +30 +30 душно 1015.4 999.3 +33.8
21 12.06 штиль 0 10 км 3/0
[Ci fib]
+20.5 +17.1 81 +24 +24 комфорт 1017.2 1000.6
00 13.06 штиль 0 4000 м дымка 3/0
[Ci fib]
+17.1 +16.7 97 +17 +17 1017.4 1000.6
03 13.06 штиль 0 4000 м дымка 3/0
[Ci fib]
+17.5 +16.1 91 +17 +18 1018.2 1001.4
06 13.06 Ю 1 10 км 8/0
[Ac trans Ci fib]
+25.1 +17.3 62 +29 +36 душно 1018.3 1002.0 +15.2
09 13.06 Ю 2 20 км 8/4 600 м
[Cu hum Ci fib]
+30.8 +15.3 39 +33 +42 душно 1018.2 1002.3
12 13.06 ЮВ 3 20 км 9/8 600 м
[Cu med, cong Ci fib]
+32.1 +16.4 39 +35 +37 очень
душно
1017.7 1001.9
15 13.06 С 2
{14}
10 км в посл. час гроза {ливн. осадки} [макс. диам. градин 8 мм] 10/10 600 м
[Cb calv]
+23.6 +21.4 87 +30 +30 очень
душно
1018.8 1002.4
18 13.06 штиль 0 4000 м дымка {гроза, ливн. осадки} 9/0
[Ci fib]
+22.3 +21.2 93 +29 +29 очень
душно
1018.7 1002.2 +34.4 10
21 13.06 В 1 4000 м дымка 4/0
[Ci fib]
+20.1 +18.8 92 +25 +25 комфорт 1020.1 1003.5
00 14.06 штиль 0 4000 м дымка ясно +19.0 +17.9 93 +20 +20 1020.3 1003.6
03 14.06 штиль 0 4000 м дымка 3/0
[Ci fib]
+19.0 +18.2 95 +21 +21 комфорт 1020.2 1003.5
06 14.06 В 1 10 км 6/0
[Ci fib]
+24.3 +20.0 77 +30 +38 очень
душно
1020.0 1003.6 +17.8
09 14.06 Ю 1 10 км 8/3 600 м
[Cu med, cong Ci fib]
+29.1 +19.6 57 +35 +47 очень
душно
1019.1 1003.1
12 14.06 ЮЗ 2
{11}
4000 м гроза, ливневой дождь 10/10 600 м
[Cb cap]
+19.0 +17.1 89 +21 +21 комфорт 1019.7 1003.0
15 14.06 штиль 0 10 км {гроза, ливн. осадки} 9/6 600 м
[Cb calv Ci fib]
+24.2 +20.3 79 +30 +32 очень
душно
1017.7 1001.4
18 14.06 штиль 0 4000 м дымка {гроза, ливн. осадки} 8/4 600 м
[Cb calv Ci fib]
+22.3 +21.0 92 +29 +29 очень
душно
1016.9 1000.5 +31.5 5
21 14.06 штиль 0 4000 м дымка 3/0
[Ci fib]
+19.9 +19.2 96 +23 +23 комфорт 1017.6 1001.0
00 15.06 З 1 4000 м дымка 3/0
[Ci fib]
+18.4 +17.3 93 +20 +20 1017.6 1000.9
03 15.06 С 1 4000 м дымка 3/0
[Ci fib]
+17.5 +16.8 96 +19 +19 1017.5 1000.7
06 15.06 С 1 10 км 3/0
[Ci fib]
+23.2 +19.0 77 +29 +38 душно 1017.5 1001.1 +16.0
09 15.06 СЗ 2 20 км 3/3 600 м
[Cu hum]
+27.1 +16.0 51 +30 +42 душно 1017.0 1000.9
12 15.06 СЗ 3 20 км 3/3 600 м
[Cu hum]
+28.9 +12.3 36 +30 +38 жарко 1015.8 999.8
15 15.06 С 2 20 км 3/0
[Ci fib]
+29.2 +13.4 38 +31 +35 жарко 1014.3 998.4
18 15.06 С 1 10 км 3/0
[Ci fib]
+24.2 +14.4 54 +27 +27 жарко 1014.8 998.5 +30.0
21 15.06 штиль 0 10 км ясно +17.5 +14.3 81 +17 +17 1015.5 998.8
00 16.06 штиль 0 4000 м дымка ясно +14.1 +13.2 94 +14 +14 1016.1 999.1
03 16.06 штиль 0 4000 м дымка 4/0
[Ci fib]
+14.0 +12.8 92 +14 +14 1016.0 999.0
06 16.06 СВ 2 10 км 10/0
[Cs]
+21.5 +15.0 66 +25 +31 комфорт 1016.1 999.6 +12.9
09 16.06 С 1 20 км 10/0
[Cs]
+25.7 +13.7 47 +28 +43 жарко 1015.5 999.3
12 16.06 СВ 2 20 км 10/0
[Cs]
+26.5 +13.9 46 +29 +40 жарко 1015.1 999.0

 

Местоположение метеостанции Василевичи (Гомельская область, Беларусь): широта 52.25 долгота 29.84 высота над уровнем моря 142 м.

В архиве по умолчанию представлена погода в Василевичах за последнюю неделю. Архивные данные за месяц целиком и за предыдущие месяцы, начиная с января 2011 года, Вы можете получить, выбрав интересующий диапазон дат из раскрывающегося списка и нажав кнопку "Ввод!".


*Определитесь, кто Вы:
робот инопланетянин человек

Внимание! Время в таблицах - всемирное. Для получения местного времени необходимо прибавить поправку, которая равна 3 ч.

Смотрите также архив погоды в соседних городах и на ближайших метеорологических станциях:

Погода в Мозыре (Гомельская область, Беларусь) (50 км)
Погода в Брагине (Гомельская область, Беларусь) (59 км)
Погода в Жлобине (Гомельская область, Беларусь) (73 км)
Погода в Гомеле (Гомельская область, Беларусь) (78 км)
Погода в Октябре (Гомельская область, Беларусь) (78 км)
Погода в Чернобыле (Киевская область, Украина) (111 км)
Погода в Бобруйске (Могилевская область, Беларусь) (117 км)
Погода в Овруче (Житомирская область, Украина) (127 км)
Погода в Чернигове (Черниговская область, Украина) (130 км)
Погода в Житковичах (Гомельская область, Беларусь) (134 км)

Пояснения к столбцам:

Ветер - указаны скорость ветра в м/с - средняя за 10 мин, порывы в срок и между сроками (в фигурных скобках) и направление, откуда дует ветер: С - северный, СВ - северо-восточный, В - восточный, ЮВ - юго-восточный, Ю - южный, ЮЗ - юго-западный, З - западный, СЗ - северо-западный.
Видимость - горизонтальная дальность видимости в метрах или километрах. При видимости от 1 до 10 км при отсутствии осадков обычно наблюдается дымка, при ухудшении видимости до 1 км и менее - туман. В сухую погоду видимость может ухудшаться дымом, пылью или мглою.
Явления - указаны атмосферные явления, наблюдавшиеся в срок или в последний час перед сроком; фигурными скобками обозначены явления, наблюдавшиеся между сроками (за 1-3 часа до срока); квадратными скобками обозначены град или гололедные отложения с указанием их диаметра в мм.
Облачность - указаны через наклонную черту общая и нижняя облачность в баллах и высота нижней границы облаков в метрах; квадратными скобками обозначены формы облаков: Ci - перистые, Cs - перисто-слоистые, Cc - перисто-кучевые, Ac - высококучевые, As - высокослоистые, Sc - слоисто-кучевые, Ns - слоисто-дождевые, Cu - кучевые, Cb - кучево-дождевые. Подробнее классификацию облаков см. в Атласе облаков (PDF).
T - Температура воздуха - температура, измеренная на высоте 2 м над землей.
Td - Температура точки росы - температура, при понижении до которой содержащийся в воздухе водяной пар достигнет насыщения.
f - Относительная влажность воздуха - влажноcть воздуха, измеренная на высоте 2 м над землей.
Te - Эффективная температура - температура, которую ощущает одетый по сезону человек в тени. Характеристика душности погоды. При расчете учитывается влияние влажности воздуха и скорости ветра на теплоощущения человека.
Tes - Эффективная температура на солнце - температура, которую ощущает человек, с поправкой на солнечный нагрев. Характеристика знойности погоды. Зависит от высоты солнца над горизонтом, облачности и скорости ветра. Ночью, в пасмурную погоду, а также при ветре 12 м/с и более поправка равна нулю.
P - Атмосферное давление - приведенное к уровню моря атмосферное давление.
Po - Атмосферное давление - измеренное на уровне метеостанции атмосферное давление.
Tmin - Минимальная температура - минимум температуры воздуха на высоте 2 м над землей.
Tmax - Максимальная температура - максимум температуры воздуха на высоте 2 м над землей.
R - Количество осадков - Количество выпавших осадков за период времени, мм. При наведении курсора мыши на число - период времени, за который выпало указанное количество осадков.
R24 - Количество осадков - Количество выпавших осадков за 24 часа, мм.
S - Снежный покров - Высота снежного покрова, см. При наведении курсора мыши на число - состояние снежного покрова и степень покрытия местности в баллах.